Terminal Aerodrome Forecast
Issued by NWS

Home | Current Version | Previous Version | Text Only | Print | Product List | Glossary On
Versions: 1 2 3 4 5 6 7 8 9 10 11 12 13 14 15 16 17 18 19 20 21 22 23 24 25
000
FTUS44 KOUN 211134
TAFLAW
TAF
KLAW 211134Z 2112/2212 00000KT P6SM SCT070
     FM211600 04013G20KT P6SM VCSH BKN050
     FM211800 04012G20KT P6SM BKN070
     FM220100 03007KT P6SM SCT250=

USA.gov is the U.S. government's official web portal to all federal, state and local government web resources and services.